Year,Month,Day,Hour,Minute,Value (Times are PST for temperature in C)
2018,08,18,00,00,17.20
2018,08,18,00,01,17.20
2018,08,18,00,02,17.20
2018,08,18,00,03,17.20
2018,08,18,00,04,17.20
2018,08,18,00,05,17.10
2018,08,18,00,06,17.10
2018,08,18,00,07,17.10
2018,08,18,00,08,17.10
2018,08,18,00,09,17.10
2018,08,18,00,10,17.10
2018,08,18,00,11,17.10
2018,08,18,00,12,17.10
2018,08,18,00,13,17.00
2018,08,18,00,14,17.00
2018,08,18,00,15,16.90
2018,08,18,00,16,16.90
2018,08,18,00,17,16.80
2018,08,18,00,18,16.80
2018,08,18,00,19,16.70
2018,08,18,00,20,16.70
2018,08,18,00,21,16.60
2018,08,18,00,22,16.50
2018,08,18,00,23,16.40
2018,08,18,00,24,16.30
2018,08,18,00,25,16.30
2018,08,18,00,26,16.20
2018,08,18,00,27,16.10
2018,08,18,00,28,16.00
2018,08,18,00,29,16.00
2018,08,18,00,30,15.90
2018,08,18,00,31,15.90
2018,08,18,00,32,15.80
2018,08,18,00,33,15.80
2018,08,18,00,34,15.70
2018,08,18,00,35,15.70
2018,08,18,00,36,15.70
2018,08,18,00,37,15.70
2018,08,18,00,38,15.70
2018,08,18,00,39,15.70
2018,08,18,00,40,15.70
2018,08,18,00,41,15.70
2018,08,18,00,42,15.70
2018,08,18,00,43,15.70
2018,08,18,00,44,15.80
2018,08,18,00,45,15.80
2018,08,18,00,46,15.90
2018,08,18,00,47,16.00
2018,08,18,00,48,16.10
2018,08,18,00,49,16.20
2018,08,18,00,50,16.30
2018,08,18,00,51,16.40
2018,08,18,00,52,16.40
2018,08,18,00,53,16.50
2018,08,18,00,54,16.60
2018,08,18,00,55,16.60
2018,08,18,00,56,16.60
2018,08,18,00,57,16.70
2018,08,18,00,58,16.70
2018,08,18,00,59,16.70
2018,08,18,01,00,16.80
2018,08,18,01,01,16.80
2018,08,18,01,02,16.90
2018,08,18,01,03,16.90
2018,08,18,01,04,16.90
2018,08,18,01,05,17.00
2018,08,18,01,06,17.00
2018,08,18,01,07,17.00
2018,08,18,01,08,17.10
2018,08,18,01,09,17.10
2018,08,18,01,10,17.10
2018,08,18,01,11,17.10
2018,08,18,01,12,17.10
2018,08,18,01,13,17.00
2018,08,18,01,14,17.00
2018,08,18,01,15,17.00
2018,08,18,01,16,16.90
2018,08,18,01,17,16.90
2018,08,18,01,18,16.90
2018,08,18,01,19,16.90
2018,08,18,01,20,16.80
2018,08,18,01,21,16.80
2018,08,18,01,22,16.80
2018,08,18,01,23,16.70
2018,08,18,01,24,16.70
2018,08,18,01,25,16.70
2018,08,18,01,26,16.60
2018,08,18,01,27,16.60
2018,08,18,01,28,16.60
2018,08,18,01,29,16.60
2018,08,18,01,30,16.50
2018,08,18,01,31,16.50
2018,08,18,01,32,16.50
2018,08,18,01,33,16.40
2018,08,18,01,34,16.40
2018,08,18,01,35,16.40
2018,08,18,01,36,16.40
2018,08,18,01,37,16.40
2018,08,18,01,38,16.30
2018,08,18,01,39,16.30
2018,08,18,01,40,16.30
2018,08,18,01,41,16.30
2018,08,18,01,42,16.30
2018,08,18,01,43,16.30
2018,08,18,01,44,16.30
2018,08,18,01,45,16.20
2018,08,18,01,46,16.20
2018,08,18,01,47,16.20
2018,08,18,01,48,16.20
2018,08,18,01,49,16.20
2018,08,18,01,50,16.20
2018,08,18,01,51,16.20
2018,08,18,01,52,16.10
2018,08,18,01,53,16.10
2018,08,18,01,54,16.10
2018,08,18,01,55,16.10
2018,08,18,01,56,16.10
2018,08,18,01,57,16.00
2018,08,18,01,58,16.00
2018,08,18,01,59,16.00
2018,08,18,02,00,15.90
2018,08,18,02,01,15.90
2018,08,18,02,02,15.90
2018,08,18,02,03,15.90
2018,08,18,02,04,15.80
2018,08,18,02,05,15.80
2018,08,18,02,06,15.80
2018,08,18,02,07,15.80
2018,08,18,02,08,15.70
2018,08,18,02,09,15.70
2018,08,18,02,10,15.70
2018,08,18,02,11,15.70
2018,08,18,02,12,15.60
2018,08,18,02,13,15.60
2018,08,18,02,14,15.50
2018,08,18,02,15,15.50
2018,08,18,02,16,15.50
2018,08,18,02,17,15.40
2018,08,18,02,18,15.40
2018,08,18,02,19,15.40
2018,08,18,02,20,15.40
2018,08,18,02,21,15.30
2018,08,18,02,22,15.30
2018,08,18,02,23,15.30
2018,08,18,02,24,15.30
2018,08,18,02,25,15.30
2018,08,18,02,26,15.30
2018,08,18,02,27,15.30
2018,08,18,02,28,15.30
2018,08,18,02,29,15.30
2018,08,18,02,30,15.30
2018,08,18,02,31,15.30
2018,08,18,02,32,15.30
2018,08,18,02,33,15.30
2018,08,18,02,34,15.40
2018,08,18,02,35,15.40
2018,08,18,02,36,15.40
2018,08,18,02,37,15.40
2018,08,18,02,38,15.40
2018,08,18,02,39,15.40
2018,08,18,02,40,15.40
2018,08,18,02,41,15.40
2018,08,18,02,42,15.40
2018,08,18,02,43,15.40
2018,08,18,02,44,15.40
2018,08,18,02,45,15.40
2018,08,18,02,46,15.40
2018,08,18,02,47,15.30
2018,08,18,02,48,15.30
2018,08,18,02,49,15.30
2018,08,18,02,50,15.30
2018,08,18,02,51,15.20
2018,08,18,02,52,15.20
2018,08,18,02,53,15.20
2018,08,18,02,54,15.20
2018,08,18,02,55,15.10
2018,08,18,02,56,15.10
2018,08,18,02,57,15.10
2018,08,18,02,58,15.10
2018,08,18,02,59,15.10
2018,08,18,03,00,15.10
2018,08,18,03,01,15.00
2018,08,18,03,02,15.00
2018,08,18,03,03,15.10
2018,08,18,03,04,15.00
2018,08,18,03,05,15.00
2018,08,18,03,06,15.10
2018,08,18,03,07,15.10
2018,08,18,03,08,15.10
2018,08,18,03,09,15.10
2018,08,18,03,10,15.00
2018,08,18,03,11,15.00
2018,08,18,03,12,15.00
2018,08,18,03,13,15.00
2018,08,18,03,14,14.90
2018,08,18,03,15,14.90
2018,08,18,03,16,14.90
2018,08,18,03,17,14.90
2018,08,18,03,18,14.80
2018,08,18,03,19,14.80
2018,08,18,03,20,14.80
2018,08,18,03,21,14.80
2018,08,18,03,22,14.70
2018,08,18,03,23,14.70
2018,08,18,03,24,14.70
2018,08,18,03,25,14.70
2018,08,18,03,26,14.60
2018,08,18,03,27,14.60
2018,08,18,03,28,14.60
2018,08,18,03,29,14.60
2018,08,18,03,30,14.50
2018,08,18,03,31,14.50
2018,08,18,03,32,14.40
2018,08,18,03,33,14.40
2018,08,18,03,34,14.40
2018,08,18,03,35,14.40
2018,08,18,03,36,14.40
2018,08,18,03,37,14.40
2018,08,18,03,38,14.40
2018,08,18,03,39,14.40
2018,08,18,03,40,14.40
2018,08,18,03,41,14.40
2018,08,18,03,42,14.30
2018,08,18,03,43,14.30
2018,08,18,03,44,14.30
2018,08,18,03,45,14.30
2018,08,18,03,46,14.20
2018,08,18,03,47,14.20
2018,08,18,03,48,14.20
2018,08,18,03,49,14.20
2018,08,18,03,50,14.10
2018,08,18,03,51,14.10
2018,08,18,03,52,14.10
2018,08,18,03,53,14.10
2018,08,18,03,54,14.10
2018,08,18,03,55,14.10
2018,08,18,03,56,14.10
2018,08,18,03,57,14.10
2018,08,18,03,58,14.10
2018,08,18,03,59,14.10
2018,08,18,04,00,14.10
2018,08,18,04,01,14.10
2018,08,18,04,02,14.10
2018,08,18,04,03,14.10
2018,08,18,04,04,14.10
2018,08,18,04,05,14.10
2018,08,18,04,06,14.10
2018,08,18,04,07,14.00
2018,08,18,04,08,14.00
2018,08,18,04,09,13.90
2018,08,18,04,10,13.90
2018,08,18,04,11,13.90
2018,08,18,04,12,13.90
2018,08,18,04,13,13.80
2018,08,18,04,14,13.80
2018,08,18,04,15,13.80
2018,08,18,04,16,13.80
2018,08,18,04,17,13.80
2018,08,18,04,18,13.80
2018,08,18,04,19,13.80
2018,08,18,04,20,13.80
2018,08,18,04,21,13.80
2018,08,18,04,22,13.80
2018,08,18,04,23,13.70
2018,08,18,04,24,13.70
2018,08,18,04,25,13.70
2018,08,18,04,26,13.70
2018,08,18,04,27,13.70
2018,08,18,04,28,13.70
2018,08,18,04,29,13.70
2018,08,18,04,30,13.60
2018,08,18,04,31,13.60
2018,08,18,04,32,13.60
2018,08,18,04,33,13.50
2018,08,18,04,34,13.50
2018,08,18,04,35,13.50
2018,08,18,04,36,13.50
2018,08,18,04,37,13.40
2018,08,18,04,38,13.40
2018,08,18,04,39,13.40
2018,08,18,04,40,13.40
2018,08,18,04,41,13.50
2018,08,18,04,42,13.50
2018,08,18,04,43,13.50
2018,08,18,04,44,13.50
2018,08,18,04,45,13.40
2018,08,18,04,46,13.50
2018,08,18,04,47,13.40
2018,08,18,04,48,13.40
2018,08,18,04,49,13.40
2018,08,18,04,50,13.40
2018,08,18,04,51,13.30
2018,08,18,04,52,13.30
2018,08,18,04,53,13.30
2018,08,18,04,54,13.30
2018,08,18,04,55,13.30
2018,08,18,04,56,13.30
2018,08,18,04,57,13.30
2018,08,18,04,58,13.30
2018,08,18,04,59,13.30
2018,08,18,05,00,13.40
2018,08,18,05,01,13.40
2018,08,18,05,02,13.40
2018,08,18,05,03,13.40
2018,08,18,05,04,13.40
2018,08,18,05,05,13.40
2018,08,18,05,06,13.40
2018,08,18,05,07,13.40
2018,08,18,05,08,13.40
2018,08,18,05,09,13.30
2018,08,18,05,10,13.30
2018,08,18,05,11,13.30
2018,08,18,05,12,13.30
2018,08,18,05,13,13.30
2018,08,18,05,14,13.30
2018,08,18,05,15,13.30
2018,08,18,05,16,13.20
2018,08,18,05,17,13.20
2018,08,18,05,18,13.20
2018,08,18,05,19,13.20
2018,08,18,05,20,13.10
2018,08,18,05,21,13.10
2018,08,18,05,22,13.00
2018,08,18,05,23,13.00
2018,08,18,05,24,12.90
2018,08,18,05,25,12.90
2018,08,18,05,26,12.90
2018,08,18,05,27,12.90
2018,08,18,05,28,12.90
2018,08,18,05,29,12.90
2018,08,18,05,30,12.80
2018,08,18,05,31,12.80
2018,08,18,05,32,12.80
2018,08,18,05,33,12.80
2018,08,18,05,34,12.80
2018,08,18,05,35,12.80
2018,08,18,05,36,12.80
2018,08,18,05,37,12.80
2018,08,18,05,38,12.80
2018,08,18,05,39,12.80
2018,08,18,05,40,12.80
2018,08,18,05,41,12.80
2018,08,18,05,42,12.80
2018,08,18,05,43,12.70
2018,08,18,05,44,12.70
2018,08,18,05,45,12.70
2018,08,18,05,46,12.70
2018,08,18,05,47,12.70
2018,08,18,05,48,12.70
2018,08,18,05,49,12.70
2018,08,18,05,50,12.60
2018,08,18,05,51,12.60
2018,08,18,05,52,12.60
2018,08,18,05,53,12.60
2018,08,18,05,54,12.60
2018,08,18,05,55,12.60
2018,08,18,05,56,12.60
2018,08,18,05,57,12.60
2018,08,18,05,58,12.60
2018,08,18,05,59,12.50
2018,08,18,06,00,12.50
2018,08,18,06,01,12.50
2018,08,18,06,02,12.50
2018,08,18,06,03,12.50
2018,08,18,06,04,12.50
2018,08,18,06,05,12.40
2018,08,18,06,06,12.40
2018,08,18,06,07,12.40
2018,08,18,06,08,12.40
2018,08,18,06,09,12.40
2018,08,18,06,10,12.40
2018,08,18,06,11,12.40
2018,08,18,06,12,12.40
2018,08,18,06,13,12.40
2018,08,18,06,14,12.40
2018,08,18,06,15,12.30
2018,08,18,06,16,12.30
2018,08,18,06,17,12.30
2018,08,18,06,18,12.30
2018,08,18,06,19,12.30
2018,08,18,06,20,12.30
2018,08,18,06,21,12.40
2018,08,18,06,22,12.40
2018,08,18,06,23,12.40
2018,08,18,06,24,12.40
2018,08,18,06,25,12.40
2018,08,18,06,26,12.40
2018,08,18,06,27,12.40
2018,08,18,06,28,12.40
2018,08,18,06,29,12.40
2018,08,18,06,30,12.40
2018,08,18,06,31,12.40
2018,08,18,06,32,12.50
2018,08,18,06,33,12.50
2018,08,18,06,34,12.50
2018,08,18,06,35,12.60
2018,08,18,06,36,12.60
2018,08,18,06,37,12.60
2018,08,18,06,38,12.60
2018,08,18,06,39,12.70
2018,08,18,06,40,12.70
2018,08,18,06,41,12.70
2018,08,18,06,42,12.80
2018,08,18,06,43,12.80
2018,08,18,06,44,12.80
2018,08,18,06,45,12.80
2018,08,18,06,46,12.90
2018,08,18,06,47,12.90
2018,08,18,06,48,12.90
2018,08,18,06,49,12.90
2018,08,18,06,50,12.90
2018,08,18,06,51,13.00
2018,08,18,06,52,13.00
2018,08,18,06,53,13.10
2018,08,18,06,54,13.10
2018,08,18,06,55,13.10
2018,08,18,06,56,13.10
2018,08,18,06,57,13.10
2018,08,18,06,58,13.10
2018,08,18,06,59,13.20
2018,08,18,07,00,13.20
2018,08,18,07,01,13.20
2018,08,18,07,02,13.30
2018,08,18,07,03,13.30
2018,08,18,07,04,13.30
2018,08,18,07,05,13.40
2018,08,18,07,06,13.50
2018,08,18,07,07,13.50
2018,08,18,07,08,13.50
2018,08,18,07,09,13.60
2018,08,18,07,10,13.60
2018,08,18,07,11,13.70
2018,08,18,07,12,13.70
2018,08,18,07,13,13.70
2018,08,18,07,14,13.80
2018,08,18,07,15,13.80
2018,08,18,07,16,13.80
2018,08,18,07,17,13.90
2018,08,18,07,18,13.90
2018,08,18,07,19,13.90
2018,08,18,07,20,13.90
2018,08,18,07,21,14.00
2018,08,18,07,22,14.00
2018,08,18,07,23,14.10
2018,08,18,07,24,14.10
2018,08,18,07,25,14.20
2018,08,18,07,26,14.20
2018,08,18,07,27,14.20
2018,08,18,07,28,14.20
2018,08,18,07,29,14.20
2018,08,18,07,30,14.30
2018,08,18,07,31,14.30
2018,08,18,07,32,14.30
2018,08,18,07,33,14.30
2018,08,18,07,34,14.30
2018,08,18,07,35,14.40
2018,08,18,07,36,14.40
2018,08,18,07,37,14.50
2018,08,18,07,38,14.60
2018,08,18,07,39,14.60
2018,08,18,07,40,14.70
2018,08,18,07,41,14.70
2018,08,18,07,42,14.80
2018,08,18,07,43,14.80
2018,08,18,07,44,14.90
2018,08,18,07,45,14.90
2018,08,18,07,46,14.90
2018,08,18,07,47,15.00
2018,08,18,07,48,15.00
2018,08,18,07,49,15.10
2018,08,18,07,50,15.10
2018,08,18,07,51,15.10
2018,08,18,07,52,15.10
2018,08,18,07,53,15.10
2018,08,18,07,54,15.10
2018,08,18,07,55,15.20
2018,08,18,07,56,15.20
2018,08,18,07,57,15.20
2018,08,18,07,58,15.30
2018,08,18,07,59,15.30
2018,08,18,08,00,15.40
2018,08,18,08,01,15.40
2018,08,18,08,02,15.40
2018,08,18,08,03,15.50
2018,08,18,08,04,15.50
2018,08,18,08,05,15.60
2018,08,18,08,06,15.60
2018,08,18,08,07,15.60
2018,08,18,08,08,15.70
2018,08,18,08,09,15.70
2018,08,18,08,10,15.80
2018,08,18,08,11,15.80
2018,08,18,08,12,15.80
2018,08,18,08,13,15.90
2018,08,18,08,14,15.90
2018,08,18,08,15,16.00
2018,08,18,08,16,16.10
2018,08,18,08,17,16.10
2018,08,18,08,18,16.20
2018,08,18,08,19,16.20
2018,08,18,08,20,16.20
2018,08,18,08,21,16.20
2018,08,18,08,22,16.20
2018,08,18,08,23,16.20
2018,08,18,08,24,16.20
2018,08,18,08,25,16.20
2018,08,18,08,26,16.20
2018,08,18,08,27,16.30
2018,08,18,08,28,16.30
2018,08,18,08,29,16.30
2018,08,18,08,30,16.40
2018,08,18,08,31,16.40
2018,08,18,08,32,16.50
2018,08,18,08,33,16.50
2018,08,18,08,34,16.60
2018,08,18,08,35,16.60
2018,08,18,08,36,16.70
2018,08,18,08,37,16.70
2018,08,18,08,38,16.70
2018,08,18,08,39,16.70
2018,08,18,08,40,16.80
2018,08,18,08,41,16.80
2018,08,18,08,42,16.90
2018,08,18,08,43,16.90
2018,08,18,08,44,16.90
2018,08,18,08,45,16.90
2018,08,18,08,46,16.90
2018,08,18,08,47,16.90
2018,08,18,08,48,16.90
2018,08,18,08,49,16.90
2018,08,18,08,50,16.90
2018,08,18,08,51,16.90
2018,08,18,08,52,16.90
2018,08,18,08,53,16.80
2018,08,18,08,54,16.80
2018,08,18,08,55,16.80
2018,08,18,08,56,16.80
2018,08,18,08,57,16.80
2018,08,18,08,58,16.80
2018,08,18,08,59,16.80
2018,08,18,09,00,16.80
2018,08,18,09,01,16.80
2018,08,18,09,02,16.80
2018,08,18,09,03,16.80
2018,08,18,09,04,16.80
2018,08,18,09,05,16.90
2018,08,18,09,06,17.00
2018,08,18,09,07,17.10
2018,08,18,09,08,17.20
2018,08,18,09,09,17.30
2018,08,18,09,10,17.40
2018,08,18,09,11,17.50
2018,08,18,09,12,17.50
2018,08,18,09,13,17.50
2018,08,18,09,14,17.50
2018,08,18,09,15,17.50
2018,08,18,09,16,17.40
2018,08,18,09,17,17.40
2018,08,18,09,18,17.40
2018,08,18,09,19,17.40
2018,08,18,09,20,17.40
2018,08,18,09,21,17.40
2018,08,18,09,22,17.40
2018,08,18,09,23,17.40
2018,08,18,09,24,17.40
2018,08,18,09,25,17.50
2018,08,18,09,26,17.50
2018,08,18,09,27,17.50
2018,08,18,09,28,17.60
2018,08,18,09,29,17.60
2018,08,18,09,30,17.60
2018,08,18,09,31,17.60
2018,08,18,09,32,17.70
2018,08,18,09,33,17.70
2018,08,18,09,34,17.80
2018,08,18,09,35,17.90
2018,08,18,09,36,18.00
2018,08,18,09,37,18.10
2018,08,18,09,38,18.30
2018,08,18,09,39,18.40
2018,08,18,09,40,18.40
2018,08,18,09,41,18.40
2018,08,18,09,42,18.50
2018,08,18,09,43,18.50
2018,08,18,09,44,18.60
2018,08,18,09,45,18.60
2018,08,18,09,46,18.60
2018,08,18,09,47,18.60
2018,08,18,09,48,18.60
2018,08,18,09,49,18.60
2018,08,18,09,50,18.60
2018,08,18,09,51,18.50
2018,08,18,09,52,18.40
2018,08,18,09,53,18.40
2018,08,18,09,54,18.40
2018,08,18,09,55,18.50
2018,08,18,09,56,18.60
2018,08,18,09,57,18.60
2018,08,18,09,58,18.70
2018,08,18,09,59,18.80
2018,08,18,10,00,18.90
2018,08,18,10,01,19.00
2018,08,18,10,02,19.00
2018,08,18,10,03,19.10
2018,08,18,10,04,19.00
2018,08,18,10,05,19.00
2018,08,18,10,06,19.00
2018,08,18,10,07,19.00
2018,08,18,10,08,19.00
2018,08,18,10,09,19.10
2018,08,18,10,10,19.10
2018,08,18,10,11,19.10
2018,08,18,10,12,19.20
2018,08,18,10,13,19.20
2018,08,18,10,14,19.20
2018,08,18,10,15,19.20
2018,08,18,10,16,19.20
2018,08,18,10,17,19.20
2018,08,18,10,18,19.20
2018,08,18,10,19,19.20
2018,08,18,10,20,19.20
2018,08,18,10,21,19.20
2018,08,18,10,22,19.10
2018,08,18,10,23,19.10
2018,08,18,10,24,19.10
2018,08,18,10,25,19.20
2018,08,18,10,26,19.20
2018,08,18,10,27,19.20
2018,08,18,10,28,19.20
2018,08,18,10,29,19.30
2018,08,18,10,30,19.40
2018,08,18,10,31,19.50
2018,08,18,10,32,19.60
2018,08,18,10,33,19.70
2018,08,18,10,34,19.80
2018,08,18,10,35,19.80
2018,08,18,10,36,19.80
2018,08,18,10,37,19.80
2018,08,18,10,38,19.80
2018,08,18,10,39,19.80
2018,08,18,10,40,19.80
2018,08,18,10,41,19.80
2018,08,18,10,42,19.80
2018,08,18,10,43,19.90
2018,08,18,10,44,19.90
2018,08,18,10,45,19.90
2018,08,18,10,46,19.90
2018,08,18,10,47,20.00
2018,08,18,10,48,20.10
2018,08,18,10,49,20.20
2018,08,18,10,50,20.20
2018,08,18,10,51,20.20
2018,08,18,10,52,20.20
2018,08,18,10,53,20.20
2018,08,18,10,54,20.20
2018,08,18,10,55,20.20
2018,08,18,10,56,20.20
2018,08,18,10,57,20.20
2018,08,18,10,58,20.20
2018,08,18,10,59,20.20
2018,08,18,11,00,20.20
2018,08,18,11,01,20.20
2018,08,18,11,02,20.10
2018,08,18,11,03,20.10
2018,08,18,11,04,20.10
2018,08,18,11,05,20.10
2018,08,18,11,06,20.10
2018,08,18,11,07,20.10
2018,08,18,11,08,20.00
2018,08,18,11,09,20.00
2018,08,18,11,10,19.90
2018,08,18,11,11,19.90
2018,08,18,11,12,19.90
2018,08,18,11,13,19.90
2018,08,18,11,14,19.90
2018,08,18,11,15,19.90
2018,08,18,11,16,20.00
2018,08,18,11,17,20.10
2018,08,18,11,18,20.10
2018,08,18,11,19,20.10
2018,08,18,11,20,20.10
2018,08,18,11,21,20.10
2018,08,18,11,22,20.10
2018,08,18,11,23,20.10
2018,08,18,11,24,20.10
2018,08,18,11,25,20.10
2018,08,18,11,26,20.10
2018,08,18,11,27,20.20
2018,08,18,11,28,20.20
2018,08,18,11,29,20.20
2018,08,18,11,30,20.20
2018,08,18,11,31,20.20
2018,08,18,11,32,20.10
2018,08,18,11,33,20.00
2018,08,18,11,34,20.00
2018,08,18,11,35,19.90
2018,08,18,11,36,19.80
2018,08,18,11,37,19.80
2018,08,18,11,38,19.90
2018,08,18,11,39,19.90
2018,08,18,11,40,19.90
2018,08,18,11,41,19.90
2018,08,18,11,42,19.90
2018,08,18,11,43,20.00
2018,08,18,11,44,20.10
2018,08,18,11,45,20.10
2018,08,18,11,46,20.20
2018,08,18,11,47,20.20
2018,08,18,11,48,20.20
2018,08,18,11,49,20.20
2018,08,18,11,50,20.20
2018,08,18,11,51,20.20
2018,08,18,11,52,20.30
2018,08,18,11,53,20.30
2018,08,18,11,54,20.30
2018,08,18,11,55,20.40
2018,08,18,11,56,20.40
2018,08,18,11,57,20.40
2018,08,18,11,58,20.40
2018,08,18,11,59,20.40
2018,08,18,12,00,20.40
2018,08,18,12,01,20.40
2018,08,18,12,02,20.50
2018,08,18,12,03,20.50
2018,08,18,12,04,20.50
2018,08,18,12,05,20.50
2018,08,18,12,06,20.60
2018,08,18,12,07,20.70
2018,08,18,12,08,20.80
2018,08,18,12,09,20.80
2018,08,18,12,10,20.90
2018,08,18,12,11,20.90
2018,08,18,12,12,20.90
2018,08,18,12,13,20.80
2018,08,18,12,14,20.80
2018,08,18,12,15,20.70
2018,08,18,12,16,20.70
2018,08,18,12,17,20.70
2018,08,18,12,18,20.70
2018,08,18,12,19,20.70
2018,08,18,12,20,20.70
2018,08,18,12,21,20.80
2018,08,18,12,22,20.80
2018,08,18,12,23,20.80
2018,08,18,12,24,20.90
2018,08,18,12,25,20.90
2018,08,18,12,26,20.90
2018,08,18,12,27,20.90
2018,08,18,12,28,20.90
2018,08,18,12,29,20.80
2018,08,18,12,30,20.70
2018,08,18,12,31,20.60
2018,08,18,12,32,20.60
2018,08,18,12,33,20.60
2018,08,18,12,34,20.60
2018,08,18,12,35,20.60
2018,08,18,12,36,20.60
2018,08,18,12,37,20.60
2018,08,18,12,38,20.50
2018,08,18,12,39,20.50
2018,08,18,12,40,20.40
2018,08,18,12,41,20.50
2018,08,18,12,42,20.60
2018,08,18,12,43,20.60
2018,08,18,12,44,20.70
2018,08,18,12,45,20.70
2018,08,18,12,46,20.80
2018,08,18,12,47,20.90
2018,08,18,12,48,21.00
2018,08,18,12,49,21.10
2018,08,18,12,50,21.30
2018,08,18,12,51,21.30
2018,08,18,12,52,21.40
2018,08,18,12,53,21.40
2018,08,18,12,54,21.40
2018,08,18,12,55,21.30
2018,08,18,12,56,21.30
2018,08,18,12,57,21.30
2018,08,18,12,58,21.30
2018,08,18,12,59,21.30
2018,08,18,13,00,21.30
2018,08,18,13,01,21.30
2018,08,18,13,02,21.30
2018,08,18,13,03,21.30
2018,08,18,13,04,21.30
2018,08,18,13,05,21.30
2018,08,18,13,06,21.30
2018,08,18,13,07,21.30
2018,08,18,13,08,21.30
2018,08,18,13,09,21.30
2018,08,18,13,10,21.30
2018,08,18,13,11,21.30
2018,08,18,13,12,21.30
2018,08,18,13,13,21.30
2018,08,18,13,14,21.30
2018,08,18,13,15,21.30
2018,08,18,13,16,21.30
2018,08,18,13,17,21.30
2018,08,18,13,18,21.30
2018,08,18,13,19,21.20
2018,08,18,13,20,21.20
2018,08,18,13,21,21.10
2018,08,18,13,22,21.10
2018,08,18,13,23,21.00
2018,08,18,13,24,21.00
2018,08,18,13,25,21.00
2018,08,18,13,26,21.00
2018,08,18,13,27,21.10
2018,08,18,13,28,21.10
2018,08,18,13,29,21.10
2018,08,18,13,30,21.10
2018,08,18,13,31,21.10
2018,08,18,13,32,21.10
2018,08,18,13,33,21.10
2018,08,18,13,34,21.00
2018,08,18,13,35,21.00
2018,08,18,13,36,21.00
2018,08,18,13,37,20.90
2018,08,18,13,38,20.90
2018,08,18,13,39,20.90
2018,08,18,13,40,20.80
2018,08,18,13,41,20.80
2018,08,18,13,42,20.80
2018,08,18,13,43,20.80
2018,08,18,13,44,20.80
2018,08,18,13,45,20.80
2018,08,18,13,46,20.80
2018,08,18,13,47,20.80
2018,08,18,13,48,20.80
2018,08,18,13,49,20.90
2018,08,18,13,50,20.90
2018,08,18,13,51,21.00
2018,08,18,13,52,21.10
2018,08,18,13,53,21.10
2018,08,18,13,54,21.10
2018,08,18,13,55,21.10
2018,08,18,13,56,21.10
2018,08,18,13,57,21.00
2018,08,18,13,58,21.00
2018,08,18,13,59,21.00
2018,08,18,14,00,21.00
2018,08,18,14,01,21.00
2018,08,18,14,02,21.10
2018,08,18,14,03,21.10
2018,08,18,14,04,21.10
2018,08,18,14,05,21.10
2018,08,18,14,06,21.10
2018,08,18,14,07,21.10
2018,08,18,14,08,21.10
2018,08,18,14,09,21.10
2018,08,18,14,10,21.10
2018,08,18,14,11,21.00
2018,08,18,14,12,21.00
2018,08,18,14,13,21.00
2018,08,18,14,14,21.00
2018,08,18,14,15,21.00
2018,08,18,14,16,21.00
2018,08,18,14,17,21.10
2018,08,18,14,18,21.10
2018,08,18,14,19,21.10
2018,08,18,14,20,21.10
2018,08,18,14,21,21.20
2018,08,18,14,22,21.20
2018,08,18,14,23,21.20
2018,08,18,14,24,21.20
2018,08,18,14,25,21.10
2018,08,18,14,26,21.20
2018,08,18,14,27,21.20
2018,08,18,14,28,21.20
2018,08,18,14,29,21.20
2018,08,18,14,30,21.20
2018,08,18,14,31,21.30
2018,08,18,14,32,21.30
2018,08,18,14,33,21.30
2018,08,18,14,34,21.40
2018,08,18,14,35,21.40
2018,08,18,14,36,21.40
2018,08,18,14,37,21.30
2018,08,18,14,38,21.30
2018,08,18,14,39,21.30
2018,08,18,14,40,21.30
2018,08,18,14,41,21.30
2018,08,18,14,42,21.30
2018,08,18,14,43,21.30
2018,08,18,14,44,21.40
2018,08,18,14,45,21.40
2018,08,18,14,46,21.40
2018,08,18,14,47,21.40
2018,08,18,14,48,21.40
2018,08,18,14,49,21.40
2018,08,18,14,50,21.50
2018,08,18,14,51,21.50
2018,08,18,14,52,21.60
2018,08,18,14,53,21.60
2018,08,18,14,54,21.60
2018,08,18,14,55,21.60
2018,08,18,14,56,21.70
2018,08,18,14,57,21.70
2018,08,18,14,58,21.70
2018,08,18,14,59,21.80
2018,08,18,15,00,21.80
2018,08,18,15,01,21.80
2018,08,18,15,02,21.80
2018,08,18,15,03,21.80
2018,08,18,15,04,21.80
2018,08,18,15,05,21.70
2018,08,18,15,06,21.70
2018,08,18,15,07,21.80
2018,08,18,15,08,21.80
2018,08,18,15,09,21.80
2018,08,18,15,10,21.80
2018,08,18,15,11,21.80
2018,08,18,15,12,21.80
2018,08,18,15,13,21.80
2018,08,18,15,14,21.80
2018,08,18,15,15,21.80
2018,08,18,15,16,21.80
2018,08,18,15,17,21.80
2018,08,18,15,18,21.80
2018,08,18,15,19,21.90
2018,08,18,15,20,21.90
2018,08,18,15,21,21.90
2018,08,18,15,22,21.90
2018,08,18,15,23,21.90
2018,08,18,15,24,21.90
2018,08,18,15,25,22.00
2018,08,18,15,26,22.00
2018,08,18,15,27,22.10
2018,08,18,15,28,22.10
2018,08,18,15,29,22.20
2018,08,18,15,30,22.20
2018,08,18,15,31,22.30
2018,08,18,15,32,22.30
2018,08,18,15,33,22.30
2018,08,18,15,34,22.40
2018,08,18,15,35,22.50
2018,08,18,15,36,22.50
2018,08,18,15,37,22.60
2018,08,18,15,38,22.60
2018,08,18,15,39,22.60
2018,08,18,15,40,22.60
2018,08,18,15,41,22.60
2018,08,18,15,42,22.60
2018,08,18,15,43,22.60
2018,08,18,15,44,22.50
2018,08,18,15,45,22.60
2018,08,18,15,46,22.60
2018,08,18,15,47,22.60
2018,08,18,15,48,22.70
2018,08,18,15,49,22.70
2018,08,18,15,50,22.70
2018,08,18,15,51,22.80
2018,08,18,15,52,22.80
2018,08,18,15,53,22.80
2018,08,18,15,54,22.80
2018,08,18,15,55,22.80
2018,08,18,15,56,22.90
2018,08,18,15,57,22.90
2018,08,18,15,58,23.00
2018,08,18,15,59,23.10
2018,08,18,16,00,23.10
2018,08,18,16,01,23.20
2018,08,18,16,02,23.20
2018,08,18,16,03,23.30
2018,08,18,16,04,23.30
2018,08,18,16,05,23.30
2018,08,18,16,06,23.40
2018,08,18,16,07,23.40
2018,08,18,16,08,23.40
2018,08,18,16,09,23.40
2018,08,18,16,10,23.40
2018,08,18,16,11,23.40
2018,08,18,16,12,23.40
2018,08,18,16,13,23.40
2018,08,18,16,14,23.40
2018,08,18,16,15,23.40
2018,08,18,16,16,23.40
2018,08,18,16,17,23.40
2018,08,18,16,18,23.40
2018,08,18,16,19,23.40
2018,08,18,16,20,23.40
2018,08,18,16,21,23.40
2018,08,18,16,22,23.50
2018,08,18,16,23,23.50
2018,08,18,16,24,23.50
2018,08,18,16,25,23.60
2018,08,18,16,26,23.60
2018,08,18,16,27,23.60
2018,08,18,16,28,23.70
2018,08,18,16,29,23.70
2018,08,18,16,30,23.70
2018,08,18,16,31,23.80
2018,08,18,16,32,23.80
2018,08,18,16,33,23.90
2018,08,18,16,34,23.90
2018,08,18,16,35,24.00
2018,08,18,16,36,24.10
2018,08,18,16,37,24.10
2018,08,18,16,38,24.20
2018,08,18,16,39,24.30
2018,08,18,16,40,24.30
2018,08,18,16,41,24.40
2018,08,18,16,42,24.50
2018,08,18,16,43,24.50
2018,08,18,16,44,24.60
2018,08,18,16,45,24.60
2018,08,18,16,46,24.70
2018,08,18,16,47,24.70
2018,08,18,16,48,24.80
2018,08,18,16,49,24.80
2018,08,18,16,50,24.80
2018,08,18,16,51,24.90
2018,08,18,16,52,24.80
2018,08,18,16,53,24.80
2018,08,18,16,54,24.80
2018,08,18,16,55,24.80
2018,08,18,16,56,24.80
2018,08,18,16,57,24.80
2018,08,18,16,58,24.80
2018,08,18,16,59,24.80
2018,08,18,17,00,24.80
2018,08,18,17,01,24.80
2018,08,18,17,02,24.80
2018,08,18,17,03,24.80
2018,08,18,17,04,24.70
2018,08,18,17,05,24.70
2018,08,18,17,06,24.60
2018,08,18,17,07,24.60
2018,08,18,17,08,24.60
2018,08,18,17,09,24.60
2018,08,18,17,10,24.60
2018,08,18,17,11,24.60
2018,08,18,17,12,24.50
2018,08,18,17,13,24.50
2018,08,18,17,14,24.50
2018,08,18,17,15,24.50
2018,08,18,17,16,24.50
2018,08,18,17,17,24.50
2018,08,18,17,18,24.50
2018,08,18,17,19,24.50